Погода в Исфаре

Таджикистан     40°07′32″N   70°37′27″E
темп.,
°C
ветер,
м/с
пор.,
м/с
влажн.,
%
обл.,
%
осадки,
мм/ч
давл.,
гПа
погр.,
м
11 апреля, вс
вс1123:00+18юз45290 0.0 101665
02:00+17юз46330 0.0 101669
05:00+16юз56360 0.0 101681
08:00+18з59290 0.0 1017745
11:00+19з99330 0.0 1017895
14:00+20з1010300 0.0 1015899
17:00+18з1010315 0.0 1016819
20:00+15зюз684120 0.1 1017294
12 апреля, пн
пн1223:00+14з59418 0.1 1017316
02:00+12зюз69442 0.0 1017235
05:00+11з45490 0.0 1018117
08:00+12з44450 0.0 1019298
11:00+15зсз22381 0.0 1019650
14:00+19с223155 0.0 10171105
17:00+20сз323167 0.0 1016923
20:00+17з46435 0.0 1018220
13 апреля, вт
вт1323:00+15з3545100 0.0 1018110
02:00+15з3544100 0.0 1018123
05:00+14з3544100 0.0 1018119
08:00+15зсз4740100 0.0 1020386
11:00+14з4549100 0.5 1022428
14:00+18вюв114297 0.0 1020884
17:00+19сз323775 0.0 10201189
20:00+17зсз22485 0.0 102118
14 апреля, ср
ср1423:00+15юв11513 0.0 102011
02:00+14юв22543 0.0 101911
05:00+13ююв22554 0.0 101812
08:00+17в244693 0.0 1018357
11:00+20св45381 0.0 10171342
14:00+23св44300 0.0 10141625
17:00+23св33270 0.0 10121500
20:00+21всв22330 0.0 101213
15 апреля, чт
чт1523:00+19ююв113997 0.0 101111
02:00+18юз1141100 0.0 101011
05:00+16з334498 0.0 101137
08:00+19з4535100 0.0 1012317
11:00+22зсз4329100 0.0 1012753
14:00+24зсз2223100 0.0 10101185
17:00+24з6524100 0.0 10101145
20:00+21зюз71034100 0.0 1011462